Torna al catalogo

KINEIS-2B

AttivoComunicazioniSSO
NORAD 62934·PAYLOAD·🇫🇷 France

Lanciato Feb 8, 2025 da Rocket Lab Launch Complex 1

Loading…

Prossimi Passaggi (prossime 24 ore)

TLE

AggiornatoSource: Space-Track

Epoca: Sep 14, 2026, 13:47 UTC

1 62934U 25028G   26257.57431563  .00000897  00000-0  14539-3 0  9996
2 62934  97.9584 308.7867 0002812 202.4615 157.6470 14.73569626 85822

Traccia KINEIS-2B in tempo reale con AllMySat

Download on the App Store